Weather in Baturino

Russia / Tomsk District     56°15′41″N   84°58′22″E
temp.,
°C
wind,
m/s
gust,
m/s
humid.,
%
clouds,
%
prec.,
mm/h
press.,
hPa
HPBL,
m
10 may, mon
mon1001:00+4nne26755 0.0 1023119
04:00+2ne27935 0.0 1024160
07:00+4ne27845 0.0 1025234
10:00+10ne355644 0.0 10241337
13:00+13ne444447 0.0 10241711
16:00+13ne444328 0.0 10231746
19:00+13nne454628 0.0 10221309
22:00+7nne27704 0.0 1022144
11 may, tue
tue1101:00+6nne297916 0.0 1021182
04:00+5ne278773 0.0 1020131
07:00+7ne311735 0.0 1020344
10:00+14ne57473 0.0 10191073
13:00+17ne563787 0.0 10182527
16:00+16ne453898 0.0 10181960
19:00+15nne57506 0.0 10191238
22:00+10nne4107752 0.1 1021379
12 may, wed
wed1201:00+9nne3118498 0.4 1020345
04:00+6n389157 0.1 1020207
07:00+7nne37805 0.1 1021198
10:00+14nne34505 0.0 1020683
13:00+18n333653 0.0 10192268
16:00+18nne2232100 0.0 10182440
19:00+17ese1142100 0.0 1018203
22:00+13ssw1150100 0.0 101810
13 may, thu
thu1301:00+12s1154100 0.0 101811
04:00+11s115695 0.0 101721
07:00+12sw145694 0.0 1017138
10:00+15ssw244687 0.0 1017492
13:00+19sw2332100 0.0 10162656
16:00+19ssw333384 0.0 10161925
19:00+18wnw333897 0.0 10151562
22:00+13nnw3864100 0.1 1016489
14 may, fri
fri1401:00+10wnw1278100 0.3 101543
04:00+10w2674100 0.0 1014286
07:00+9wnw4874100 0.1 10141009
10:00+11nw6967100 0.2 10141333
13:00+12nnw5105098 0.4 10151993
16:00+13nnw710285 0.0 10172219
19:00+11nnw59295 0.0 10192199
22:00+6nw23445 0.0 102160